Home   Weather   Cologne   Past weeks
Flag for Germany

Past Weather in Cologne, North Rhine-Westphalia, Germany — September 2019

Now
45 °F

Passing clouds.


Feels Like: 40 °F
Forecast: 53 / 40 °F
Wind: 9 mph from South

Location: Koeln / Bonn

Current Time: Feb 21, 2020 at 8:42:55 pm

Latest Report: Feb 21, 2020 at 7:50 pm


Visibility: N/A

Pressure: 30.33 "Hg

Humidity: 66%

Dew Point: 34 °F

Location of CologneLocation

September 2019 Weather in Cologne — Graph

°F

High & Low Weather Summary for September 2019

 TemperatureHumidityPressure
High81 °F (Sep 22, 2:20 pm)100% (Sep 2, 6:20 am)30.54 "Hg (Sep 2, 6:20 am)
Low37 °F (Sep 19, 6:20 am)25% (Sep 21, 3:50 pm)29.42 "Hg (Sep 29, 9:50 pm)
Average59 °F74%30.08 "Hg
* Reported Sep 1 12:20 am — Sep 30 11:50 pm, Cologne. Weather by CustomWeather, © 2020

Note: Actual official high and low records may vary slightly from our data, if they occured in-between our weather recording intervals... More about our weather records

Cologne Weather History for September 1, 2019

Scroll right to see more
 ConditionsComfort  
Time TempWeatherWind HumidityBarometerVisibility
12:20 am
Sun, Sep 1
72 °FClear.15 mph65%29.83 "Hg10 mi
12:50 am70 °FClear.14 mph60%29.86 "Hg10 mi
1:20 am68 °FClear.15 mph56%29.86 "Hg10 mi
1:50 am66 °FClear.12 mph60%29.86 "Hg10 mi
2:20 am66 °FClear.10 mph64%29.86 "Hg10 mi
2:50 am64 °FClear.12 mph68%29.86 "Hg10 mi
3:20 am64 °FPassing clouds.6 mph68%29.89 "HgN/A
3:50 am64 °FPassing clouds.9 mph73%29.89 "HgN/A
4:20 am63 °FPassing clouds.9 mph77%29.89 "HgN/A
4:50 am64 °FPassing clouds.12 mph73%29.89 "HgN/A
5:20 am63 °FPassing clouds.9 mph77%29.89 "HgN/A
5:50 am63 °FOvercast.12 mph77%29.89 "HgN/A
6:20 am63 °FOvercast.9 mph77%29.89 "HgN/A
6:50 am63 °FOvercast.10 mph77%29.89 "HgN/A
7:20 am63 °FPartly sunny.10 mph77%29.89 "HgN/A
7:50 am63 °FMostly cloudy.9 mph83%29.92 "HgN/A
8:20 am63 °FMostly cloudy.8 mph83%29.92 "HgN/A
8:50 am63 °FPartly sunny.12 mph83%29.92 "HgN/A
9:20 am64 °FOvercast.10 mph78%29.92 "HgN/A
9:50 am63 °FPartly sunny.13 mph83%29.95 "HgN/A
10:20 am63 °FPartly sunny.12 mph83%29.95 "HgN/A
10:50 am63 °FLight rain. More clouds than sun.12 mph83%29.98 "HgN/A
11:20 am61 °FLight rain. Partly sunny.6 mph83%29.98 "HgN/A
11:50 am63 °FPartly sunny.2 mph83%29.98 "HgN/A
12:20 pm64 °FPassing clouds.2 mph78%29.98 "HgN/A
12:50 pm64 °FPassing clouds.7 mph73%29.98 "HgN/A
1:20 pm66 °FPassing clouds.3 mph68%29.98 "HgN/A
1:50 pm66 °FScattered clouds.6 mph68%29.98 "HgN/A
2:50 pm66 °FSprinkles. Scattered clouds.6 mph68%30.01 "HgN/A
3:20 pm66 °FSprinkles. Scattered clouds.6 mph60%30.01 "HgN/A
3:50 pm66 °FSprinkles. Passing clouds.13 mph60%30.01 "HgN/A
4:20 pm66 °FScattered clouds.10 mph56%30.01 "HgN/A
4:50 pm68 °FScattered clouds.9 mph53%30.01 "HgN/A
5:20 pm68 °FScattered clouds.10 mph53%30.01 "HgN/A
5:50 pm68 °FPassing clouds.8 mph53%30.01 "HgN/A
6:20 pm68 °FPassing clouds.10 mph49%30.01 "HgN/A
6:50 pm68 °FPassing clouds.13 mph46%30.01 "HgN/A
7:20 pm66 °FPassing clouds.8 mph49%30.01 "HgN/A
7:50 pm64 °FSunny.7 mph52%30.01 "Hg10 mi
8:20 pm63 °FClear.2 mph56%30.04 "Hg10 mi
8:50 pm59 °FClear.1 mph68%30.07 "Hg10 mi
9:20 pm57 °FPassing clouds.3 mph72%30.07 "HgN/A
9:50 pm57 °FClear.2 mph67%30.07 "Hg10 mi
10:20 pm57 °FClear.1 mph67%30.09 "Hg10 mi
10:50 pm55 °FClear.2 mph72%30.09 "Hg10 mi
11:20 pm55 °FClear.1 mph72%30.09 "Hg10 mi
11:50 pm55 °FClear.1 mph77%30.09 "Hg10 mi
Weather by CustomWeather, © 2020

See weather overview

Advertising